Hourly Data Report for August 10, 2020

OTTAWA INTL A
ONTARIO
Current Station Operator: NAVCAN

45°19'00.000" N
75°40'00.000" W
114.90 m
6106001
71628
YOW

Download Data

Hourly Data (August 2020)
Hourly Data Report for August 10, 2020
TIME
LST
Temp Definition
°C
Dew Point Definition
°C
Rel Hum Definition
%
Precip. Amount Definition
mm

Wind Dir Definition
10's deg

Wind Spd Definition
km/h
Visibility Definition
km
Stn Press Definition
kPa
Hmdx Definition


Wind Chill Definition


Weather Definition


00:00 18.1 18.1 99   36 3 3.2 100.18     Fog
01:00 16.2 16.1 99   15 4 0.4 100.17     Fog
02:00 18.2 18.2 100   13 5 0.4 100.15     Fog
03:00 18.4 18.3 100   17 7 0.4 100.20     Fog
04:00 18.3 18.3 100   9 3 0.4 100.21     Fog
05:00 18.3 18.3 100   21 4 0.4 100.22     Fog
06:00 18.5 18.5 100   14 4 0.4 100.21     Fog
07:00 19.1 19.1 100   17 4 0.4 100.21     Fog
08:00 20.1 20.1 100   10 8 2.4 100.19 28   Fog
09:00 21.6 21.2 98   12 9 24.1 100.18 30   LegendNANA
10:00 24.4 20.3 77   15 9 24.1 100.16 32   Mainly Clear
11:00 26.2 21.5 75   21 13 24.1 100.13 35   LegendNANA
12:00 27.2 21.4 70   17 10 24.1 100.05 36   LegendNANA
13:00 28.8 21.8 65   16 16 24.1 99.99 38   Mostly Cloudy
14:00 28.5 22.8 71   18 12 24.1 99.94 39   LegendNANA
15:00 27.1 22.6 76   23 22 24.1 99.91 37   Thunderstorms
16:00 24.2 19.1 73   22 10 24.1 99.89 31   Mostly Cloudy
17:00 23.8 19.2 75   17 14 24.1 99.85 31   LegendNANA
18:00 24.6 19.1 71   18 8 24.1 99.77 31   LegendNANA
19:00 23.0 19.6 81   17 10 24.1 99.73 30   Mainly Clear
20:00 21.9 19.8 88   17 9 24.1 99.77 29   LegendNANA
21:00 21.3 19.9 91   17 5 24.1 99.79 29   LegendNANA
22:00 22.0 20.4 90   19 10 24.1 99.77 30   Mostly Cloudy
23:00 21.6 20.5 93   15 4 24.1 99.77 30   LegendNANA

Notes on Data Quality.

Legend

  • E = Estimated
  • M = Missing
  • NA = Not Available*
  • [empty] = Indicates an unobserved value
Date modified: